Погода в Липове

Россия / Тульская область     53°43′30″N   37°30′16″E
темп.,
°C
ветер,
м/с
пор.,
м/с
влажн.,
%
обл.,
%
осадки,
мм/ч
давл.,
гПа
погр.,
м
8 марта, пн
пн800:00−7з614820 0.0 1000350
03:00−8зюз6148614 0.0 1001353
06:00−7зюз7149199 0.0 1000542
09:00−6з81391100 0.1 1001847
12:00−5зсз81181100 0.2 10031285
15:00−5зсз687797 0.3 10041065
18:00−8сз348821 0.0 100746
21:00−12сз239130 0.0 100921
9 марта, вт
вт900:00−13сз239215 0.0 101020
03:00−12ссз239639 0.1 101237
06:00−13с359697 0.1 1013140
09:00−15ссз479576 0.1 1015243
12:00−12ссз469092 0.0 1016507
15:00−10ссз468597 0.0 1018702
18:00−13сз3690100 0.0 1019114
21:00−16ссз479067 0.0 1022125
10 марта, ср
ср1000:00−19ссз349738 0.0 102352
03:00−21ссз339956 0.0 102525
06:00−23ссз239813 0.0 102721
09:00−21ссз35966 0.0 1028194
12:00−18с358839 0.0 1029401
15:00−16с458654 0.0 1029497
18:00−19с239127 0.0 103020
21:00−22с229113 0.0 103220
11 марта, чт
чт1100:00−23ссз22890 0.0 103320
03:00−23сз22880 0.0 103320
06:00−23зсз23880 0.0 103320
09:00−19зсз348815 0.0 1034116
12:00−14сз23831 0.0 1034310
15:00−11зсз23814 0.0 1033427
18:00−15зюз228923 0.0 103220
21:00−18юз238812 0.0 103320
12 марта, пт
пт1200:00−19ююз33870 0.0 103320
03:00−20ю44840 0.0 103262
06:00−20ю510810 0.0 1031137
09:00−15ю7138118 0.0 1028334
12:00−10ю81478100 0.0 1026531
15:00−8ю91681100 0.0 1024664
18:00−8ю101886100 0.1 1021784
21:00−7ю111992100 1.0 1020912